Wind_Speed
1 5 3 5 5 4 2 1 2 1 5 5 8 5 15 11 6 9 8 10 9 9 16 16 15 14 15 18 20 23 25 26 28 31 33 32 33 28 28 27 27 27 28 28
5 2 2 3 3 3 2 1 3 2 1 2 3 8 4 10 4 8 11 10 11 8 9 14 13 12 13 15 17 20 22 23 25 26 26 25 27 26 25 29 30 29 30 30
4 3 2 1 2 2 1 2 2 1 2 4 2 6 4 4 7 8 8 8 9 9 8 10 11 10 12 15 17 19 20 22 24 25 27 28 28 28 25 32 32 33 31 30
2 1 1 1 1 2 1 2 1 2 3 3 2 5 3 9 7 8 9 8 8 9 8 11 8 8 9 11 14 17 19 20 24 26 27 28 27 24 28 32 34 35 32 30
3 2 1 1 1 2 3 1 1 1 1 2 4 0 2 9 5 6 7 8 8 7 7 7 7 8 9 12 15 17 18 23 25 26 25 25 26 27 28 28 28 28 28 27
2 1 2 3 1 2 3 0 3 3 3 1 6 7 4 5 1 7 6 9 8 7 7 10 8 8 9 12 15 18 19 22 24 23 24 23 24 26 26 27 27 25 26 25
2 2 1 2 3 3 2 4 3 4 2 6 2 3 1 5 5 8 15 10 7 7 6 7 8 9 10 14 17 19 20 21 23 23 23 24 25 25 24 25 25 27 28 28
5 5 5 1 1 5 4 5 4 5 3 4 5 6 1 4 8 14 12 9 8 6 5 7 7 9 12 14 18 19 21 24 28 30 29 30 30 27 27 27 29 29 29 29
5 3 2 4 3 1 3 3 2 0 2 1 4 2 1 3 6 9 9 8 7 6 6 7 9 10 12 17 18 21 24 27 30 31 33 33 32 33 34 34 33 32 33 33
1 1 1 1 2 1 1 1 2 2 3 5 5 4 4 7 8 7 7 7 6 6 6 7 9 11 14 18 24 26 27 29 32 31 32 30 33 34 36 37 37 37 38 36
1 2 1 2 4 5 1 2 1 3 4 4 4 4 2 8 10 10 6 6 5 5 4 6 11 14 19 21 23 24 27 30 31 33 34 34 34 35 35 36 37 38 39 39
2 4 4 8 1 0 1 5 6 4 4 4 3 4 2 6 5 10 6 5 4 3 4 8 11 15 19 22 24 26 28 29 31 33 31 33 34 35 35 36 38 38 40 40
4 2 1 3 1 2 4 4 3 4 3 6 2 6 4 6 8 6 6 2 2 5 6 7 11 16 20 23 26 27 29 31 32 32 32 33 34 35 36 37 38 39 39 41
1 3 6 7 3 5 4 5 6 6 4 5 11 13 6 5 7 3 2 1 4 5 5 5 13 19 20 23 25 27 29 30 31 32 33 35 36 37 38 39 40 39 39 41
3 5 3 4 5 3 6 6 8 10 8 9 9 6 4 5 6 4 3 3 5 6 4 5 9 17 20 22 26 27 28 30 31 33 34 37 38 39 39 40 40 41 40 41
1 3 0 3 6 1 4 9 11 14 5 7 3 5 5 3 3 3 3 4 5 4 5 6 11 16 19 22 25 27 29 31 32 34 36 38 39 39 40 41 42 42 43 43
6 4 2 4 3 6 8 12 7 3 3 4 6 5 5 4 4 3 5 4 2 5 6 8 14 18 23 26 27 29 32 34 34 35 37 38 39 40 42 42 43 44 44 44
5 5 3 3 2 3 3 1 3 4 1 1 5 5 4 4 3 3 2 3 5 6 8 14 17 21 24 27 29 31 32 34 35 36 37 38 40 42 44 44 44 45 45 44
2 4 2 2 3 6 2 4 5 5 4 4 8 4 4 3 3 3 3 2 2 5 13 18 21 23 26 27 30 32 34 34 35 36 38 40 42 44 45 45 46 46 45 44
3 4 3 2 3 6 4 2 3 3 4 4 6 6 5 3 2 3 1 4 9 12 14 19 21 24 24 27 29 31 33 34 35 38 41 44 43 44 44 47 46 46 43 42
3 2 6 4 3 7 4 5 3 5 5 6 7 6 5 3 4 2 7 7 10 14 17 19 20 21 25 28 29 30 32 33 38 41 42 45 44 44 45 46 44 42 42 40
6 7 4 2 2 8 6 4 5 4 3 6 5 5 4 3 1 3 4 7 11 14 17 19 19 22 26 27 28 30 33 38 40 41 44 44 45 44 43 43 38 42 36 37
3 4 4 6 3 1 4 2 3 3 5 5 6 4 4 2 1 3 4 8 10 14 16 18 20 23 26 27 28 29 38 39 40 43 42 44 44 43 40 39 41 35 34 31
2 2 2 2 1 5 5 4 4 3 4 5 4 5 4 1 2 4 6 8 11 12 16 19 20 22 26 30 32 33 38 37 40 40 42 41 40 42 39 39 35 33 31 31
2 4 4 1 1 4 4 4 7 6 7 6 6 4 3 1 2 3 4 9 11 14 16 17 19 22 27 31 34 37 38 38 38 40 39 38 36 38 38 37 35 35 32 36
4 5 4 4 7 4 3 7 8 7 5 6 5 3 1 1 1 4 7 9 14 14 18 18 22 24 28 32 35 38 39 37 38 36 36 35 37 35 36 34 36 36 35 35
Wind_Direction
346 82 181 233 186 184 171 238 278 228 177 142 204 197 202 186 155 138 129 123 118 111 105 89 72 56 45 39 34 29 24 21 17 15 10 4 0 359 359 353 353 354 349 350
29 166 216 143 115 109 68 278 277 55 63 143 236 250 168 168 134 151 144 136 133 128 113 97 80 61 46 36 30 24 20 15 13 9 4 359 353 347 348 346 346 347 345 343
155 199 199 191 142 140 212 221 317 162 195 258 37 295 120 115 102 105 103 125 126 127 112 94 73 53 38 30 22 16 12 6 4 359 354 351 348 343 342 341 338 338 338 337
107 220 184 140 223 128 225 349 15 29 66 241 128 279 180 169 151 128 142 128 120 111 100 94 79 62 45 31 13 8 5 359 354 352 351 349 345 337 329 329 329 329 331 331
237 135 122 179 295 335 192 58 88 63 146 29 255 121 330 124 207 177 154 126 117 117 115 110 89 61 36 16 6 359 353 348 346 345 345 340 334 326 322 319 316 316 319 318
128 196 88 144 97 77 173 309 39 54 87 316 229 171 210 188 219 164 129 130 126 125 106 87 62 29 16 2 355 349 344 340 340 339 336 331 324 320 316 314 313 313 311 308
137 177 157 151 134 2 75 60 338 342 344 234 267 141 16 3 337 162 143 136 131 109 101 75 45 19 3 357 349 346 340 336 336 334 332 329 324 318 311 309 306 306 305 304
167 298 170 195 179 172 175 160 164 257 228 271 342 249 101 30 56 99 114 127 120 108 93 79 38 11 354 348 341 338 338 334 334 334 332 330 326 317 313 309 306 302 299 297
162 267 52 42 10 87 202 173 171 225 285 336 226 84 281 95 77 104 125 128 124 106 75 51 22 357 343 335 338 336 334 331 331 330 329 326 321 316 312 309 306 302 299 297
112 247 39 319 2 343 132 205 76 14 273 267 280 227 211 196 186 166 161 142 114 78 50 16 350 338 334 336 335 333 330 327 326 325 322 315 312 311 307 305 301 299 297 296
42 119 328 53 205 187 108 244 132 133 166 209 293 243 303 197 182 180 158 120 100 68 19 340 328 331 332 330 330 328 326 324 322 321 319 313 308 305 301 298 296 295 295 294
177 143 203 219 190 290 169 190 157 153 233 230 217 253 86 84 114 122 115 100 62 16 311 309 325 329 328 329 329 326 323 322 320 317 312 307 304 302 299 296 295 294 292 292
182 209 347 288 327 331 212 206 180 117 99 211 168 264 153 113 95 105 119 94 330 311 318 330 334 330 329 328 326 325 323 321 318 313 310 307 304 302 299 298 296 295 293 291
17 220 201 203 181 138 189 205 201 159 162 229 223 262 187 163 143 136 126 308 296 284 305 315 331 324 322 324 325 324 321 319 315 313 310 306 305 305 302 300 298 295 293 290
145 225 241 259 241 197 210 199 214 209 223 214 273 243 197 166 164 195 219 302 324 310 318 321 306 313 320 324 325 323 319 317 316 312 310 308 307 305 304 301 299 297 294 290
165 257 21 276 266 266 241 231 229 240 235 247 243 238 204 204 111 162 223 283 282 300 315 300 304 317 322 325 322 320 318 316 316 312 310 309 308 307 305 303 301 299 296 293
163 173 119 261 324 339 290 236 218 147 77 159 201 209 163 154 160 217 251 260 305 322 317 323 323 325 325 322 321 319 318 318 316 313 311 310 310 308 306 305 303 300 297 294
162 148 148 263 334 245 255 119 141 128 211 128 88 132 158 175 202 240 149 82 338 326 328 325 326 325 324 323 322 321 320 317 315 313 313 312 311 310 308 307 302 300 297 293
53 144 184 200 222 319 301 216 180 159 258 197 145 164 188 160 84 312 94 45 322 311 325 326 328 327 323 321 323 321 319 318 316 315 315 313 313 310 308 305 303 301 299 295
88 75 142 123 204 247 234 185 114 108 291 206 147 164 155 107 43 259 2 353 344 337 331 329 330 328 323 325 326 321 318 318 317 317 314 313 312 309 307 305 304 302 299 296
137 132 206 212 227 286 208 149 147 92 240 165 156 153 156 179 196 250 340 347 340 332 335 332 331 327 323 326 327 320 318 316 317 315 315 313 313 311 308 306 305 304 306 304
169 157 195 120 169 273 145 80 179 200 106 148 155 160 160 167 317 336 330 334 332 334 336 335 331 328 325 328 327 321 316 319 318 317 316 315 315 314 312 309 312 313 312 312
206 183 180 190 220 310 144 135 127 141 143 163 146 136 131 128 310 327 318 323 331 335 334 335 329 325 325 328 328 320 320 321 320 318 317 317 318 318 318 321 318 316 319 315
203 138 160 126 187 161 139 103 117 110 119 130 119 127 124 175 298 301 311 325 334 338 335 332 331 328 324 328 328 324 323 323 321 319 320 321 322 324 326 326 323 323 324 321
154 133 155 31 45 94 196 182 150 121 121 120 128 134 141 175 284 304 328 332 335 332 333 333 331 326 322 327 328 335 330 327 323 322 323 325 325 326 328 329 331 332 335 338
186 172 172 217 178 150 194 160 147 145 159 153 143 116 73 73 8 326 332 333 334 339 333 334 330 327 326 328 332 337 337 331 325 323 327 328 331 331 332 332 334 340 346 348
Height
823 839 843 833 832 830 831 835 838 836 832 840 848 850 857 862 868 879 885 890 894 896 898 899 900 900 899 898 896 894 892 890 887 883 880 877 876 875 873 871 869 866 864 860
838 838 830 828 828 830 831 834 839 836 832 837 841 845 851 862 869 876 883 890 891 894 896 898 899 899 899 898 897 896 894 892 889 887 885 883 880 876 874 870 868 865 862 860
835 832 826 826 828 831 831 836 837 838 837 837 842 850 858 866 871 875 881 885 888 892 895 898 899 900 900 899 899 897 895 895 891 888 885 881 878 875 872 868 865 863 860 858
830 829 829 830 831 831 840 839 837 838 849 859 841 865 861 866 874 879 885 887 891 893 895 897 898 898 897 897 897 896 895 893 891 888 885 882 879 875 873 869 864 860 858 855
834 833 834 835 837 832 837 837 839 841 849 856 848 862 857 869 877 880 888 891 893 894 895 897 898 898 898 897 896 894 893 892 890 887 884 882 879 876 872 868 863 860 855 852
833 831 833 836 836 836 836 838 843 847 860 879 847 850 864 867 861 874 887 891 892 894 897 899 899 899 898 897 895 892 891 890 888 886 883 881 877 872 868 865 860 855 852 849
834 836 836 834 838 838 839 850 865 869 877 858 836 849 854 872 872 868 883 891 893 896 897 899 900 900 898 897 896 895 893 891 886 882 879 877 873 869 864 861 857 852 847 843
850 849 840 836 838 842 845 847 865 847 859 851 842 840 864 880 877 877 884 890 893 896 897 898 899 899 899 898 895 891 887 885 884 881 875 870 868 864 860 856 851 846 842 838
845 834 842 842 841 841 841 851 845 853 856 863 849 878 880 881 885 886 888 891 895 897 899 899 898 898 896 894 892 889 885 883 878 876 872 867 863 859 854 849 844 839 835 830
834 840 843 845 844 844 843 846 858 871 860 852 847 832 843 884 885 887 890 893 896 898 899 899 898 897 894 892 889 886 883 879 876 871 867 863 858 853 848 843 837 831 826 822
837 841 850 846 851 849 857 853 851 860 868 866 861 844 866 872 878 884 890 895 898 898 898 898 896 895 893 890 887 884 880 876 871 867 861 857 851 846 841 836 830 824 818 813
840 849 853 848 852 849 846 844 851 867 849 861 859 851 877 881 878 885 895 898 897 897 896 895 895 894 892 888 885 882 878 874 869 863 857 851 845 839 834 828 822 817 809 804
842 852 863 840 852 852 847 845 843 858 869 860 872 834 881 883 887 893 898 896 896 897 895 895 895 894 891 886 882 877 874 870 864 858 851 844 838 832 825 819 812 806 800 793
842 851 841 842 825 842 845 844 845 851 881 843 834 825 885 887 892 896 894 895 898 897 895 894 893 891 887 884 878 874 869 865 859 853 846 838 831 824 817 809 802 797 791 783
849 854 848 841 840 839 840 839 845 849 839 849 826 840 887 891 897 900 898 897 894 894 893 891 890 887 883 878 875 870 865 859 854 847 840 831 823 816 808 800 793 786 779 772
851 851 848 847 841 843 845 845 843 836 840 848 846 868 899 893 893 890 891 892 892 891 890 888 887 884 880 876 872 867 861 855 849 841 833 824 816 808 799 791 783 775 767 760
855 858 860 856 849 851 846 841 838 842 859 859 858 875 891 886 886 893 891 891 892 891 890 889 886 882 879 876 871 864 857 850 843 835 826 818 809 800 790 782 773 763 755 747
852 853 860 872 859 871 852 862 870 870 878 883 879 882 888 890 887 892 889 891 891 890 889 886 883 879 876 872 867 861 854 846 837 829 820 812 802 792 782 773 762 752 744 734
849 851 858 867 874 848 870 864 867 867 871 887 884 886 886 882 886 893 887 887 887 888 887 884 880 877 872 866 862 856 849 841 832 824 815 805 796 785 774 763 752 741 731 720
850 856 859 873 871 857 863 861 862 876 879 880 877 880 884 884 895 888 885 884 884 884 884 880 877 874 869 862 857 852 844 836 827 819 809 799 789 779 767 754 742 731 721 709
859 860 859 859 877 863 866 862 864 880 871 871 871 873 877 884 884 882 881 882 883 883 880 878 874 870 865 859 854 848 840 832 824 814 803 793 782 772 759 746 733 721 710 700
842 851 864 873 874 859 858 866 867 866 867 866 869 871 875 877 879 881 882 882 882 881 877 876 871 867 861 856 851 844 836 828 819 808 798 786 775 764 751 738 726 715 703 693
835 833 840 844 845 856 854 854 860 861 864 868 870 872 874 877 879 880 881 880 879 877 874 871 868 864 858 853 849 841 831 824 815 804 792 781 769 757 745 733 720 707 698 688
835 839 840 845 854 856 857 858 859 861 865 869 870 872 875 877 879 880 881 880 878 874 871 869 865 860 855 850 844 839 829 821 812 800 788 777 765 751 741 730 718 706 695 683
836 839 842 854 855 856 859 858 861 866 867 869 871 873 875 877 879 880 879 879 877 873 869 867 863 858 853 847 841 834 826 819 808 797 786 775 763 751 739 729 717 705 696 684
837 835 843 841 843 850 851 855 860 866 868 868 871 873 876 877 879 879 878 878 874 872 869 864 860 856 851 845 838 830 823 816 807 796 785 774 763 751 740 728 715 705 696 685